Lapse_Rate
6.2 6.3 6.4 6.4 6.5 6.6 6.6 6.7 6.7 6.7 6.6 6.5 6.4 6.5 6.6 6.7 6.8 6.9 6.9 6.9 7.0 6.8 6.7 6.7 6.9 7.0 6.9 7.2 7.2 7.1 6.9 7.1 8.0 8.5 9.4 9.6 9.3 9.2 8.8 8.9 8.5 8.3 7.8 7.8 6.3
6.1 6.1 6.2 6.3 6.4 6.5 6.6 6.7 6.7 6.7 6.6 6.5 6.4 6.4 6.5 6.6 6.7 6.7 6.9 7.0 7.0 6.8 6.8 6.7 6.7 6.7 6.9 7.1 7.0 7.0 7.0 7.4 8.1 8.7 9.3 9.5 9.1 9.0 8.8 8.5 8.3 7.9 6.9 6.8 6.6
6.1 6.1 6.1 6.2 6.3 6.4 6.5 6.6 6.7 6.6 6.6 6.5 6.4 6.3 6.4 6.5 6.4 6.8 6.7 6.8 6.8 6.8 6.7 6.7 6.9 6.4 6.5 6.7 7.0 7.2 7.2 7.9 8.0 8.5 9.3 9.4 9.2 9.3 9.3 8.7 8.2 7.3 6.6 6.2 6.4
6.3 6.2 6.2 6.2 6.2 6.3 6.4 6.5 6.6 6.5 6.5 6.4 6.3 6.3 6.3 6.3 6.3 6.4 6.5 6.7 6.7 6.8 6.8 6.6 6.8 6.7 6.7 6.9 7.2 7.3 7.6 7.9 8.4 8.6 9.3 9.0 9.0 9.1 9.2 8.5 7.6 7.6 7.4 6.7 7.2
6.2 6.3 6.3 6.2 6.2 6.3 6.4 6.4 6.4 6.5 6.4 6.3 6.3 6.3 6.3 5.9 6.3 6.3 6.4 6.6 6.7 6.8 6.8 6.7 6.5 6.7 6.9 7.3 7.6 7.7 7.9 8.2 8.3 8.9 9.1 8.9 8.2 8.9 8.3 8.3 7.5 7.6 7.4 7.2 7.6
6.1 6.2 6.3 6.3 6.2 6.2 6.3 6.3 6.4 6.4 6.5 6.4 6.4 6.4 6.3 6.2 6.3 6.5 6.3 6.5 6.7 6.8 6.6 6.6 6.7 6.7 7.0 7.3 7.5 7.8 8.1 8.1 8.1 8.6 8.6 9.4 9.3 9.5 8.3 8.4 8.3 8.1 8.0 8.2 7.8
6.1 6.1 6.2 6.4 6.3 6.3 6.3 6.3 6.3 6.4 6.4 6.4 6.5 6.5 6.3 6.1 6.0 6.6 6.7 6.6 7.0 7.0 6.7 6.5 6.6 6.8 7.1 7.5 7.8 7.9 7.9 8.1 8.3 8.5 8.4 8.8 9.5 9.6 9.0 8.6 8.4 8.1 7.9 7.8 7.6
6.2 6.2 6.2 6.3 6.4 6.4 6.4 6.4 6.4 6.3 6.4 6.3 6.5 6.5 6.2 6.3 6.4 6.4 6.8 6.9 6.6 6.8 6.5 6.6 6.8 7.1 7.3 7.4 7.7 8.1 8.4 8.5 8.4 8.7 8.9 9.0 9.1 9.1 7.9 9.0 8.5 8.2 8.1 7.9 8.0
6.1 6.2 6.2 6.3 6.4 6.5 6.4 6.4 6.4 6.5 6.4 6.4 6.5 6.6 6.5 6.5 6.5 6.5 6.4 6.5 6.5 7.0 7.0 7.1 7.3 7.4 7.6 7.4 8.0 8.3 8.3 8.7 9.1 9.1 9.1 9.2 8.8 8.4 7.9 8.3 8.5 8.4 8.3 8.3 8.1
6.1 6.2 6.3 6.3 6.5 6.6 6.5 6.4 6.2 6.2 6.5 6.6 6.6 6.5 6.7 6.8 6.6 6.4 6.3 6.4 6.7 6.7 7.1 7.3 7.5 7.7 7.9 8.1 8.1 8.9 8.9 9.4 9.5 9.3 9.2 9.2 8.4 7.7 7.6 7.9 8.1 8.0 7.9 8.1 8.1
6.2 6.2 6.3 6.4 6.5 6.7 6.7 6.4 6.3 6.3 6.3 6.7 6.5 6.9 6.9 6.8 6.8 6.8 6.7 6.7 6.7 6.8 7.2 7.4 7.7 8.2 8.2 8.5 9.1 8.9 9.1 9.3 9.7 9.5 9.3 8.9 8.7 8.5 8.0 8.0 7.8 7.7 7.7 8.0 8.3
6.3 6.3 6.3 6.3 6.5 6.7 6.8 6.6 6.3 6.3 6.2 6.7 6.7 6.9 6.9 7.0 7.0 7.0 6.8 7.0 7.1 7.4 7.6 8.0 8.0 8.6 8.3 8.9 8.7 8.6 8.9 9.1 9.5 9.6 9.5 9.4 9.1 8.7 8.4 8.2 7.9 7.8 8.2 8.4 8.4
6.2 6.2 6.4 6.3 6.4 6.6 7.0 6.7 6.5 6.4 6.3 7.0 6.9 6.9 6.9 7.0 7.1 7.2 7.4 7.4 7.5 7.6 7.9 8.2 8.6 8.5 8.7 9.0 8.7 8.9 8.8 9.0 9.1 9.5 9.5 9.4 8.8 8.7 8.1 7.4 7.2 7.6 7.7 7.9 8.3
6.2 6.1 6.3 6.4 6.4 6.4 6.6 6.7 6.5 6.4 6.4 7.4 7.2 7.0 7.1 7.3 7.4 7.5 7.5 7.4 7.6 8.1 8.3 8.9 9.3 8.8 8.6 8.7 8.9 8.9 8.8 8.8 8.9 8.9 9.1 9.4 8.9 7.3 7.4 6.9 7.5 8.0 7.8 7.8 8.0
6.3 6.2 6.2 6.5 6.5 6.5 6.7 6.3 6.5 6.7 6.2 7.8 7.6 7.6 7.6 7.6 7.7 7.8 7.7 7.7 8.0 7.9 8.5 9.3 9.5 8.6 8.9 8.7 8.7 8.1 8.2 8.2 8.3 8.5 8.7 9.0 9.2 6.7 7.5 7.6 8.0 7.8 7.6 7.4 7.9
6.4 6.3 6.3 6.7 6.6 6.2 6.3 6.3 6.7 6.9 7.1 8.2 8.1 8.0 7.9 7.9 8.0 7.9 7.8 7.8 8.1 8.2 8.3 8.6 8.4 8.5 8.7 8.4 8.3 8.4 8.5 8.5 8.8 8.9 8.6 9.0 9.4 7.1 7.6 7.7 6.9 7.2 7.0 7.5 7.4
6.6 6.5 6.6 6.6 6.5 6.6 6.5 6.3 6.7 7.2 9.0 8.9 8.4 8.3 8.2 8.2 8.3 8.1 8.1 8.1 8.2 8.2 8.4 8.9 9.0 8.8 8.6 8.4 8.7 8.4 8.5 8.4 7.7 7.8 7.7 9.3 8.9 8.0 7.5 7.0 6.8 6.9 7.5 7.6 6.9
6.7 6.8 6.8 6.6 6.6 6.8 6.6 6.6 6.6 8.2 9.1 9.1 9.2 8.6 8.5 8.6 8.7 8.4 8.4 8.4 8.4 8.5 8.5 8.7 9.0 9.3 8.2 8.4 8.4 8.9 8.8 8.5 7.8 7.2 8.3 9.3 7.5 6.8 7.1 7.4 6.5 6.9 7.4 7.0 6.3
6.9 6.8 6.8 6.8 6.6 6.7 6.6 6.4 7.1 8.5 9.0 9.1 9.5 9.6 9.0 9.1 9.6 9.6 9.1 9.0 9.1 8.1 8.5 8.6 9.1 9.3 9.2 8.4 8.4 8.3 8.5 8.7 8.5 8.5 8.5 7.7 7.0 6.8 7.4 7.4 7.1 7.2 7.2 6.3 5.8
6.9 6.8 6.6 6.7 6.4 6.7 6.7 6.9 7.6 8.3 8.5 8.8 9.0 9.6 9.7 9.6 9.7 9.6 9.5 9.2 9.1 8.8 8.9 8.8 8.8 8.6 8.5 8.3 8.3 8.4 8.5 8.6 9.0 7.7 8.1 8.2 7.7 7.3 7.3 7.1 7.3 6.8 6.9 7.0 6.4
6.8 6.4 6.3 6.4 6.5 6.5 6.8 7.5 8.3 8.4 8.2 8.2 8.8 8.9 9.1 9.6 9.8 9.6 9.6 9.6 9.2 8.8 8.2 8.4 8.4 8.5 8.6 8.4 8.3 8.5 8.5 8.4 8.5 8.5 7.5 7.1 7.7 7.5 7.2 7.0 6.9 6.5 6.4 5.9 5.4
6.8 6.6 6.5 6.4 6.7 6.8 7.2 7.9 8.1 8.3 8.2 7.9 8.4 8.6 8.6 9.0 9.2 9.3 9.0 9.1 9.0 8.5 8.4 8.2 8.1 8.1 8.3 8.7 8.5 8.6 8.8 8.6 8.3 8.1 8.4 8.4 7.5 7.7 7.5 6.9 6.4 5.7 5.3 5.4 5.8
7.2 6.9 6.7 6.7 6.8 7.1 7.1 7.6 7.9 8.3 7.7 8.0 8.2 8.4 8.7 8.7 8.8 8.8 8.7 8.7 8.5 8.5 8.1 8.0 8.0 8.0 8.1 8.5 8.3 8.2 8.4 8.2 8.2 8.2 8.0 7.8 7.9 7.7 7.4 6.8 6.7 6.3 6.1 6.3 5.9
7.4 7.3 6.8 6.9 7.2 6.9 7.1 7.3 7.7 7.9 8.0 8.3 8.1 8.4 8.6 8.6 8.5 8.5 8.2 8.1 8.0 8.1 8.1 8.2 8.2 8.0 7.9 8.1 8.3 8.3 8.5 8.5 8.2 8.1 8.1 8.3 8.2 7.7 7.4 7.1 6.6 6.5 6.4 5.9 5.4
7.1 6.4 6.6 7.1 6.8 6.6 7.0 7.3 7.6 7.8 7.8 8.3 8.1 8.3 8.3 8.5 8.5 8.7 8.6 8.0 7.7 7.7 7.8 7.8 7.8 7.8 7.7 7.8 8.1 8.4 8.3 8.2 8.6 8.7 8.4 8.4 7.9 7.5 7.0 6.6 6.5 6.2 5.9 5.6 5.7
7.0 7.1 7.1 7.2 7.0 7.1 7.4 7.3 7.5 7.9 7.9 8.1 8.0 8.2 8.4 8.5 8.4 8.8 8.2 8.1 7.5 7.5 7.2 7.7 7.5 7.4 7.4 7.7 7.9 8.1 8.3 8.1 8.4 8.5 8.5 8.4 7.5 7.1 6.9 6.7 6.5 6.3 5.9 6.3 6.3
7.0 7.2 7.2 7.4 6.9 7.1 7.3 7.3 7.7 8.1 8.5 8.3 8.3 7.8 8.3 8.1 8.2 8.1 8.1 7.3 7.4 7.5 7.2 7.1 7.2 7.4 7.3 7.5 7.7 7.8 8.2 8.2 8.4 8.4 8.3 8.0 7.5 6.8 6.6 6.7 6.6 6.5 6.6 6.3 6.1
Wind_Speed
19 17 15 14 13 13 13 13 12 12 12 12 12 12 13 15 18 2 6 10 7 13 5 6 9 9 9 7 8 6 3 7 17 14 2 8 10 9 10 11 7 6 10 13 12
20 19 17 15 14 13 13 13 13 13 13 12 12 12 12 13 4 9 14 8 6 4 4 7 11 8 6 7 5 4 2 11 17 12 7 3 7 13 9 14 11 7 10 19 14
22 21 19 17 16 15 14 13 14 14 14 13 11 11 11 10 4 6 18 13 8 5 3 6 9 8 7 7 9 9 8 16 19 10 9 5 10 5 7 11 15 23 17 14 10
25 24 23 21 19 17 16 15 14 14 13 12 11 10 9 3 3 3 11 10 6 4 4 7 8 6 5 8 9 6 13 13 15 10 6 4 5 10 8 10 26 27 23 15 7
25 25 25 23 21 19 17 16 16 15 14 12 9 8 4 3 9 6 8 10 7 3 6 9 9 7 8 8 9 7 11 9 8 8 9 6 5 9 28 29 24 21 21 16 17
26 26 25 24 23 21 19 17 17 16 15 11 9 5 2 5 7 15 11 8 8 8 9 10 9 9 6 6 4 6 6 3 6 10 5 5 1 8 23 27 25 25 21 20 20
27 27 26 25 24 23 21 19 18 17 14 9 7 4 5 12 9 17 11 9 8 13 14 9 3 8 9 9 10 7 6 7 7 7 1 0 5 14 25 28 25 24 20 19 17
28 27 28 27 26 24 22 21 20 17 12 7 6 4 7 8 17 8 9 9 7 7 7 5 9 7 4 7 7 3 5 5 11 8 4 10 4 12 22 27 23 22 18 17 16
29 29 29 29 28 26 24 24 21 12 4 7 4 4 8 3 4 7 8 9 8 6 5 5 2 5 8 5 6 5 8 9 11 12 6 9 8 20 20 23 19 16 16 16 14
30 30 30 29 29 28 31 18 7 12 3 7 7 5 7 10 6 9 3 4 4 6 5 5 3 3 5 1 7 5 6 7 8 6 7 12 10 10 17 23 17 15 15 15 14
32 32 31 31 29 25 14 2 2 0 5 9 7 5 8 8 4 3 5 3 7 4 6 8 2 7 13 11 3 6 7 9 5 9 10 13 9 8 17 19 18 15 13 13 12
33 33 33 35 30 26 4 4 8 7 5 16 18 19 20 5 7 10 8 6 7 8 8 6 11 12 1 6 7 8 7 9 4 7 7 11 8 9 13 11 17 16 13 12 8
33 33 34 37 41 4 6 10 10 17 3 14 14 13 8 2 10 10 11 10 10 9 10 11 8 4 5 6 2 5 5 7 6 3 1 10 4 12 12 17 16 14 13 10 8
33 32 32 39 4 5 5 10 16 10 3 7 10 16 7 7 7 14 9 9 9 9 8 6 4 5 1 5 5 2 8 9 6 5 2 5 4 6 11 13 13 13 11 11 9
35 33 33 15 7 4 7 7 4 5 3 8 8 7 10 8 6 6 2 4 8 8 2 6 3 5 2 4 8 5 9 7 6 8 6 10 5 2 8 9 12 10 11 8 8
37 35 28 2 4 10 17 11 4 1 6 7 8 6 7 9 6 6 5 2 7 6 7 6 1 2 4 6 6 6 4 6 5 2 3 10 4 5 5 8 8 10 10 9 8
41 43 14 7 5 10 10 2 1 4 4 9 13 12 10 9 9 8 7 6 4 1 4 8 7 4 7 5 7 5 4 3 4 3 6 6 7 1 10 11 13 12 11 9 8
44 43 6 8 15 11 2 3 5 10 9 3 13 13 10 9 9 8 7 6 8 3 3 3 6 6 5 5 4 6 2 3 3 3 4 6 3 2 4 9 7 12 9 7 7
39 3 4 5 19 4 3 3 6 6 5 7 7 10 8 10 7 7 8 4 3 5 4 5 5 6 7 6 4 6 4 3 2 5 5 5 3 3 6 9 12 10 9 7 3
7 4 5 9 14 3 1 6 7 12 16 6 6 2 6 10 7 6 8 8 7 8 8 2 3 6 1 5 5 8 5 5 4 2 3 2 3 6 7 7 7 8 7 7 6
2 4 3 12 4 2 4 6 11 15 9 3 6 8 9 5 4 3 8 9 7 7 6 3 3 5 7 6 4 5 4 4 3 2 1 2 2 6 13 11 11 10 9 8 5
5 3 4 5 2 3 5 6 8 15 6 2 5 6 7 8 1 2 5 4 5 7 4 3 3 2 4 10 1 4 4 1 5 5 1 3 3 4 13 12 11 10 11 8 9
6 4 5 5 3 5 6 14 18 4 4 4 5 7 5 6 4 9 6 5 7 6 3 1 0 2 7 8 4 4 5 4 3 3 1 3 4 7 10 10 9 13 9 8 8
3 4 3 1 4 5 7 12 15 7 4 7 6 6 4 4 3 2 8 3 7 4 5 5 1 5 6 7 1 3 6 4 5 4 4 4 6 4 8 10 9 9 9 9 10
3 2 2 4 5 11 7 8 11 7 5 3 4 5 7 0 3 4 9 9 7 5 3 4 1 2 5 7 11 14 2 5 5 5 5 2 7 6 8 10 9 8 8 10 12
3 4 6 7 8 8 7 6 8 12 6 4 6 7 7 4 5 4 6 4 5 2 4 2 0 3 6 10 12 11 7 4 6 5 2 9 8 7 7 8 10 9 10 12 12
5 6 4 6 7 6 5 7 11 8 10 9 6 3 7 8 9 8 9 7 7 8 6 7 4 2 4 7 10 8 2 4 4 4 6 4 8 7 8 10 8 8 10 11 9
Wind_Direction
4 359 353 347 340 333 327 320 313 309 305 305 310 315 321 323 315 196 240 235 192 240 318 283 283 251 246 258 270 289 339 274 273 285 325 7 76 59 107 115 83 125 170 150 157
4 359 354 348 340 332 324 318 314 309 305 304 310 318 322 331 278 243 237 205 157 173 230 242 267 250 225 244 250 191 209 255 264 280 323 329 23 119 121 101 86 102 105 123 133
3 0 354 350 342 333 324 317 311 308 305 307 312 316 322 322 290 239 175 186 165 201 265 288 281 275 231 232 234 243 223 256 273 278 306 3 14 43 134 122 158 138 145 167 166
359 357 353 349 342 334 326 317 310 306 305 308 314 313 316 261 328 138 170 181 188 244 281 272 271 279 287 272 250 210 241 242 265 284 349 2 29 355 45 45 137 141 148 162 159
353 352 349 344 341 333 325 317 311 305 303 303 306 318 305 228 251 159 175 181 193 193 234 247 263 230 236 240 261 232 248 252 267 294 304 85 61 78 83 93 122 106 102 84 68
349 346 344 340 337 333 326 316 308 303 300 299 292 310 229 255 151 158 186 174 222 201 249 251 253 257 263 269 268 249 279 285 331 301 309 44 87 87 96 99 89 85 79 69 62
347 343 341 338 334 330 326 316 307 301 296 287 263 261 258 248 161 172 193 202 208 220 246 280 324 8 341 313 275 301 355 343 299 275 208 238 51 66 110 95 92 87 83 75 67
345 342 339 336 333 329 324 316 305 299 293 252 217 254 256 257 237 162 197 245 212 253 275 320 1 307 271 293 318 327 321 260 257 235 153 95 66 92 105 99 98 95 90 83 80
342 340 338 335 331 328 323 310 297 293 268 159 177 213 266 244 213 224 223 240 177 226 250 317 290 248 304 271 322 273 236 231 271 170 148 119 111 79 99 97 98 99 99 92 83
340 338 336 333 331 328 323 290 269 314 198 200 253 295 256 247 187 234 231 311 242 213 247 203 246 233 299 166 241 277 254 317 137 184 136 90 85 82 111 105 101 94 94 93 94
338 336 333 331 329 329 339 357 336 332 233 213 187 247 271 125 112 186 215 200 282 264 242 253 164 229 235 240 305 16 352 335 86 141 106 119 117 100 122 112 111 100 92 89 92
335 334 333 328 323 321 280 248 250 293 266 226 248 263 257 157 189 204 180 190 218 238 246 293 229 255 39 44 30 3 332 308 337 138 122 139 136 103 76 94 112 113 111 112 104
332 332 332 326 318 291 211 238 269 290 315 285 241 237 243 231 257 162 165 213 233 240 239 224 265 88 40 347 354 280 253 283 274 340 248 107 107 111 97 96 96 93 100 94 115
330 330 332 331 337 337 242 250 245 258 323 258 192 222 196 207 256 161 185 212 277 239 270 214 149 75 228 240 240 270 354 11 355 33 239 139 242 115 127 112 113 123 109 110 102
327 326 326 316 300 272 268 292 39 47 279 154 166 190 178 185 189 192 171 287 264 311 202 250 133 138 278 31 30 111 28 356 340 335 35 314 79 218 138 133 135 123 114 111 108
324 320 329 261 203 248 288 302 55 20 243 183 144 163 159 214 213 136 179 260 277 290 329 300 84 41 65 24 356 19 5 339 326 290 318 255 245 216 180 180 163 122 126 114 109
323 315 308 263 233 326 326 270 39 224 283 153 160 160 192 198 236 146 179 200 222 233 285 265 249 116 79 20 328 19 12 322 334 349 225 251 109 232 220 135 131 133 118 112 113
324 312 248 211 236 271 291 41 235 256 252 257 166 176 191 204 212 164 199 204 225 183 299 325 297 124 115 76 21 338 151 170 257 272 263 12 54 342 40 131 129 101 101 88 90
324 296 261 245 223 256 41 247 218 232 349 349 270 175 183 222 187 160 173 260 92 91 84 23 42 111 99 84 102 299 328 242 13 320 21 120 138 29 73 71 89 99 105 121 131
318 290 265 251 191 87 105 246 262 300 305 338 327 216 194 206 194 149 171 207 152 112 106 6 19 13 129 175 276 158 248 15 355 350 306 164 158 177 158 148 137 122 138 179 186
237 301 246 125 88 102 207 244 271 262 256 30 318 324 332 344 211 162 186 22 113 105 83 50 96 309 357 33 344 4 356 357 108 104 186 351 278 185 164 173 165 172 182 179 190
318 292 217 118 124 215 228 244 258 281 37 43 306 302 302 352 128 307 69 65 55 114 85 37 96 35 302 292 114 47 314 49 109 324 23 142 307 55 142 170 162 156 133 126 97
315 269 264 120 227 244 282 278 277 243 309 281 229 271 291 315 7 91 93 72 44 57 92 301 91 50 352 354 31 63 338 124 137 87 336 98 237 121 94 96 116 119 125 120 112
289 304 286 152 232 297 296 300 300 186 231 294 324 289 282 252 337 352 120 88 70 82 138 86 97 151 181 238 274 244 235 328 140 113 213 237 188 154 121 125 121 106 101 103 87
238 295 352 343 340 324 326 267 319 332 147 263 309 297 292 52 240 276 110 121 113 171 91 94 138 330 289 284 287 283 212 278 271 219 138 290 80 90 99 99 111 122 102 84 88
315 2 342 298 296 306 305 316 303 308 316 286 220 253 294 246 232 289 147 111 150 167 130 120 140 346 301 292 276 293 265 219 286 286 144 95 86 112 114 103 76 73 79 84 83
344 335 309 293 306 309 273 277 290 276 288 289 4 62 345 66 86 112 106 107 121 140 173 150 153 121 272 324 331 320 12 74 19 40 118 111 160 133 80 90 100 86 81 89 89